Showing default

CYGFM05, 41884

Orbit data source: Space-Track

CYGFM05, 41884 is an American payload satellite in LEO that was launched on Thu, 15 Dec 2016 UTC via a PEGASUS XL launch vehicle from the Pegasus Launch, Eastern Range Air Space (ERAS). Payload-class satellites include a variety of spacecraft equipped with specific instruments for various scientific and technological missions. These include communications satellites like Starlink; space stations such as the ISS; scientific satellites like the Hubble; Earth observation satellites from companies like Planet Labs, Umbra, and HawkEye 360; GPS; miniature CubeSats for education and research; and military/defense satellites.

Loading next visibility...
Identifier
41884, 2016-078A
Orbit
LEO
Last TLE update
15 hours ago
Origin
Manufacturer
SST-US
Mission
Extended mission Civil Science
Bus & Motor
CYGNSS, Unknown motor
Mass
29 kg wet, 29 kg dry
Launch date (UTC)
2016-12-15 (9 years ago)
Launch vehicle
PEGASUS XL
Launch site
Pegasus Launch, Eastern Range Air Space (ERAS)
Object type
Payload
Rocket body
Debris
Shape & HBR
Half Hex Cyl + 2 Pan, 1.7 m
Radar Cross Section
0.450 m², Medium (>0.1 m² and < 1m²)

Expand to show TLE details & history

TLE from 15 hours ago
0 CYGFM05
1 41884U 16078A   25183.26430556  .00009251  00000-0  21783-3 0  9998
2 41884  34.9619  28.8558 0008400  92.6178 267.5504 15.41106884474484
Epoch: 2025-07-02T06:20Z
TLE epoch observation values (Epoch: 2025-07-02T06:20:36Z)
Latitude
0.00003°
Longitude
13.15794°
Altitude
441.985 km
Speed
7.649 km/s
True Right ascension
01h 55m 25s
True Declination
0° 00' 00"
Sunlit
Object was in daylight at epoch
Visualization orbit readout
Latitude
13.52147°
Longitude
169.20656°
Altitude
437.888 km
Speed
7.654 km/s
Apparent Right ascension
15h 26m 08s
Apparent Declination
-24° 35' 28"
Sunlit
Object is in daylight
Visualization observer readout
Local Sidereal Time
08:44:37
Azimuth
103.458° ESE
Elevation
-23.122°
Doppler factor
1
Orbital elements
Apogee altitude
451.856 km
Perigee altitude
440.391 km
Semi-major axis
6,824.26 km
Eccentricity
0.00084
Inclination
34.9619°
RAAN
28.8558°
Arg. of periapsis
92.6178°
True anomaly
Unknown
Mean anomaly
267.5504°
Eccentric anomaly
Unknown
Mean motion
3.84999 °/min
Orbital period
93.51 mins
BSTAR
0.00021783
Loading maneuver chart data...
Loading SW <> Apogee altitude chart data...
Loading historical data...
Loading historical data...
Loading historical data...
Loading historical data...
Loading historical data...
Loading historical data...
Loading historical data...

CYGFM05 Visibility forecast

Observer location: undefined°, undefined°

Span
Click to sort rows by Start time (UTC) header in descending order
Start Az.
Max El. time (UTC)
Max El. Az.
Max El.
End time (UTC)
End Az.
4 mins2025-07-03 18:24:29.998Z218.831° SW2025-07-03 18:26:29.998Z162.695° S26.406°2025-07-03 18:28:29.998Z116.193° SE
5 mins2025-07-03 20:02:29.998Z240.453° WSW2025-07-03 20:04:29.998Z186.551° SSW28.704°2025-07-03 20:07:29.998Z121.345° SE
|